Two Harbors, MN

12:01 AM CST on November 22, 2019 (GMT -0600)
Helgeson

Weather History for KTWM - October, 2019

Change the Weather History Date:

Monday, October 21, 2019

  Actual Average Record
Temperature  
Mean Temperature 45 °F -  
Max Temperature 46 °F 52 °F 71 °F (1986)
Min Temperature 44 °F 35 °F 21 °F (2018)
Degree Days  
Heating Degree Days 20    
Moisture  
Dew Point 38 °F    
Average Humidity 75    
Maximum Humidity 81    
Minimum Humidity 62    
Precipitation  
Precipitation 0.01 in - - ()
Sea Level Pressure  
Sea Level Pressure 29.46 in    
Wind  
Wind Speed 11 mph ()    
Max Wind Speed 29 mph    
Max Gust Speed 40 mph    
Visibility 9.0 miles    
Events Rain    
Averages and records for this station are not official NWS values.
T = Trace of Precipitation, MM = Missing Value Source: Averaged Metar Reports

Daily Weather History Graph

Daily Weather History Graph

Search for Another Location

Airport or City:

Astronomy

Oct. 21, 2019 Rise Set
Actual Time 7:33 AM CDT 6:09 PM CDT
Civil Twilight 7:02 AM CDT 6:40 PM CDT
Nautical Twilight 6:26 AM CDT 7:15 PM CDT
Astronomical Twilight 5:51 AM CDT 7:50 PM CDT
Moon No Moon Rise 3:05 PM CDT (10/21)
Length of Visible Light 11h 37m
Length of Day
10h 35m
Waning Gibbous, 48% of the Moon is Illuminated
Oct 21
Waning Gibbous
Oct 27
New
Nov 4
First Quarter
Nov 12
Full
Nov 19
Last Quarter

Hourly Weather History & Observations

Time (CDT) Temp. Windchill Dew Point Humidity Pressure Visibility Wind Dir Wind Speed Gust Speed Precip Events Conditions
12:55 AM 46.4 °F 42.9 °F 33.8 °F 62% 29.88 in 10.0 mi NNE 6.9 mph - N/A   Clear
1:55 AM 46.4 °F 42.9 °F 33.8 °F 62% 29.86 in 10.0 mi NE 6.9 mph - N/A   Clear
2:55 AM 46.4 °F 41.9 °F 35.6 °F 66% 29.80 in 10.0 mi NE 9.2 mph - N/A   Clear
3:55 AM 44.6 °F 39.2 °F 35.6 °F 71% 29.80 in 10.0 mi NE 10.4 mph - N/A   Clear
4:55 AM 44.6 °F 38.4 °F 35.6 °F 71% 29.81 in 10.0 mi NE 12.7 mph 17.3 mph N/A   Clear
5:55 AM 44.6 °F 38.4 °F 35.6 °F 71% 29.77 in 10.0 mi NE 12.7 mph 19.6 mph N/A   Scattered Clouds
6:55 AM 44.6 °F 39.2 °F 35.6 °F 71% 29.74 in 10.0 mi NE 10.4 mph 16.1 mph N/A   Clear
7:55 AM 44.6 °F 38.1 °F 37.4 °F 76% 29.70 in 10.0 mi NE 13.8 mph 19.6 mph N/A   Clear
9:55 AM 46.4 °F 39.8 °F 37.4 °F 71% 29.62 in 10.0 mi NE 16.1 mph 29.9 mph N/A   Overcast
10:55 AM 44.6 °F 37.8 °F 37.4 °F 76% 29.58 in 10.0 mi ENE 15.0 mph 32.2 mph N/A   Overcast
11:55 AM 44.6 °F 36.6 °F 37.4 °F 76% 29.51 in 4.0 mi NE 19.6 mph 32.2 mph N/A Rain Rain
12:55 PM 44.6 °F 35.3 °F 37.4 °F 76% 29.44 in 10.0 mi NE 26.5 mph 34.5 mph N/A Rain Heavy Rain
1:55 PM 44.6 °F 34.9 °F 37.4 °F 76% 29.37 in 7.0 mi ENE 28.8 mph 39.1 mph 0.01 in Rain Rain
2:55 PM 44.6 °F 35.7 °F 39.2 °F 81% 29.31 in 7.0 mi NE 24.2 mph 40.3 mph N/A Rain Rain
3:55 PM 44.6 °F 35.9 °F 39.2 °F 81% 29.28 in 7.0 mi ENE 23.0 mph 36.8 mph N/A Rain Heavy Rain
4:55 PM 46.4 °F 38.1 °F 39.2 °F 76% 29.25 in 10.0 mi NE 24.2 mph 34.5 mph N/A Rain Rain
5:55 PM 44.6 °F 35.9 °F 39.2 °F 81% 29.21 in 7.0 mi NE 23.0 mph 36.8 mph N/A Rain Rain
6:55 PM 44.6 °F 37.4 °F 39.2 °F 81% 29.21 in 10.0 mi ENE 16.1 mph 26.5 mph N/A   Overcast
7:55 PM 46.4 °F 42.4 °F 39.2 °F 76% 29.21 in 10.0 mi ENE 8.1 mph - N/A   Overcast
8:55 PM 46.4 °F 45.2 °F 41.0 °F 81% 29.20 in 10.0 mi NE 3.5 mph - N/A   Overcast
9:55 PM 46.4 °F 43.5 °F 41.0 °F 81% 29.18 in 10.0 mi NE 5.8 mph - N/A   Overcast
10:45 PM 46.4 °F 44.3 °F 41.0 °F 81% 29.19 in 10.0 mi East 4.6 mph - N/A   Overcast
11:05 PM 46.4 °F 44.3 °F 41.0 °F 81% 29.19 in 7.0 mi East 4.6 mph - N/A   Overcast
11:39 PM 46.4 °F - 41.0 °F 81% 29.18 in 5.0 mi Calm Calm - N/A Rain Light Rain
11:55 PM 46.4 °F - 39.2 °F 76% 29.17 in 10.0 mi Calm Calm - N/A   Mostly Cloudy